Preview of NWS' New Version of Forecast
This preview is not operational and should not be used for support decisions.

Regional Weather Roundup (RWR)

Issued by National Weather Service (NWS)

                            
000
ASUS43 KLSX 260707
RWRMO 

WEATHER SUMMARY FOR MISSOURI
NATIONAL WEATHER SERVICE SPRINGFIELD MO
200 AM CDT SUN MAY 26 2019

NOTE: "FAIR" INDICATES FEW OR NO CLOUDS BELOW 12,000 FEET WITH NO
       SIGNIFICANT WEATHER AND/OR OBSTRUCTIONS TO VISIBILITY.
       CURRENT SKY AND/OR WEATHER CONDITIONS ARE NOT AVAILABLE FOR
       CHILLICOTHE AND FARMINGTON.

MOZ001>031-035>038-043-044-053-054-260800-
...NORTHERN AND WESTERN MISSOURI...
  
CITY           SKY/WX    TMP DP  RH WIND       PRES   REMARKS
KANSAS CTY INT LGT RAIN  65  65 100 S5        30.00F                  
KANSAS C DTWN  CLOUDY    68  63  84 CALM      29.97F                  
LEE'S SUMMIT   CLOUDY    66  63  90 CALM      30.00F                  
ST JOSEPH      CLOUDY    65  63  93 W5        29.99R                  
CHILLICOTHE      N/A     67  65  93 E3        29.99R                  
KIRKSVILLE     TSTM      65  62  90 VRB7      30.02R VSB 3/4          
     
$$
MOZ066>068-077>081-088>096-101>105-260800-
...SOUTHWEST MISSOURI...
  
CITY           SKY/WX    TMP DP  RH WIND       PRES   REMARKS
SPRINGFIELD    CLOUDY    71  65  81 S7        30.05S                  
JOPLIN         LGT RAIN  70  62  76 NW8       30.06R                  
BRANSON        CLOUDY    72  63  73 CALM      30.09R                  
               
$$
MOZ032>034-039>042-045>050-055>058-069>072-260800-
...CENTRAL MISSOURI...  
  
CITY           SKY/WX    TMP DP  RH WIND       PRES   REMARKS
COLUMBIA       CLOUDY    72  66  81 S7        30.00F                  
ROLLA          CLOUDY    72  66  81 SW7       30.05F                  
SEDALIA        CLOUDY    70  67  90 SW8       30.00F                  
WHITEMAN AFB   CLOUDY    74  69  81 SW8       29.95F                  
WARRENSBURG    CLOUDY    73  66  78 SW10      30.00R                  
OSAGE BEACH    CLOUDY    74  67  78 S6        30.02                   
               
$$
MOZ051-052-059>065-260800-
...EAST CENTRAL MISSOURI...
  
CITY           SKY/WX    TMP DP  RH WIND       PRES   REMARKS
ST LOUIS INTL  MOCLDY    78  68  71 SW9       30.02F                  
SPIRIT OF STL  CLOUDY    76  69  79 S7        30.01S                  
ST CHARLES       N/A    N/A N/A N/A MISG      30.01S                  
                   
$$
MOZ072>076-082>087-097>100-106>115-260800-
...SOUTH CENTRAL AND SOUTHEAST MISSOURI...
  
CITY           SKY/WX    TMP DP  RH WIND       PRES   REMARKS
CAPE GIRARDEAU FAIR      72  66  81 W3        30.03S                  
FARMINGTON     CLOUDY    70  67  90 CALM      30.06F                  
POPLAR BLUFF   FAIR      72  69  90 SW3       30.04R                  
WEST PLAINS    CLOUDY    72  63  73 SW3       30.09R                  
                                       
$$